FENGYUN 1C DEB

Satellite information

Favourite Embed

Satellite Type and Status

DEBRISIN ORBIT

Key statistics

Satellite FENGYUN 1C DEB at a glance.

Uptime

9495

Days in orbit

Revolutions

≈ 14.2

Per day

Orbit

SSO

Sun Synchronous Orbit

Inclination

98.6

Latest

Satellite identification and parameters

Extended collection of information and parameters for FENGYUN 1C DEB.

Object identification

Identified? True

Debris? True

Object name: FENGYUN 1C DEB

International designator: 1999-025ABY

Object number (NORAD): 30361

Object ID (CCSDS): 30361

Country: PEOPLES REPUBLIC OF CHINA (PRC)

Current information (Y/N): Y

RCS size: SMALL

Orbital parameters

Period: 101.103 minutes

Inclination: 98.5834 deg

SMA: 7189.025 km

Apoapsis: 857.269 km

Periapsis: 764.511 km

RAAN: 168.7492 deg

Eccentricy: 0.0064514

Argument of periapsis: 308.3462 deg

Mean anomaly: 51.193 deg

Mean motion: 14.24287812 rev/day

Mean motion (dot): 0.00002219 rev/day2

B* drag term: 0.00095905 1/REarth

Two-line elements (TLE)

Creation date: May 8, 2025, 3:01 a.m.

Reference frame: TEME

Reference center: EARTH

Epoch: May 7, 2025, 7:56 p.m. UTC

TLE line 0: 0 FENGYUN 1C DEB

TLE line 1: 1 30361U 99025ABY 25127.83111756 .00002219 00000-0 95905-3 0 9992

TLE line 2: 2 30361 98.5834 168.7492 0064514 308.3462 51.1930 14.24287812944998

Live tracking on map

Real-time ground track for satellite FENGYUN 1C DEB.

In-orbit conjunctions

A list of the most updated potential collisions computed for object FENGYUN 1C DEB.

Target Orbit TCA Probability of collision Miss distance Type
CZ-6A DEB LEO 2025-02-18 04:26:36 0.000262654 451.0 (m) DEBRIS
METEOR 2-6 LEO 2025-01-08 20:52:25 0.0003282576 354.0 (m) PAYLOAD

Associated space launch

Chinese polar orbiting meteorological satellite

FENGYUN 1C DEB was lifted into orbit during the mission ‘Long March 4B | Feng Yun 1C’, on board a Long March 4B space rocket.

The launch took place on May 10, 1999, 1:33 a.m. from Launch Complex 7.

For more information about the launch, click the button.

Launch to space Long March 4B | Feng Yun 1C
Long March 4B | Feng Yun 1C

Agency: N/A

Status: Launch Successful

Launch date: May 10, 1999, 1:33 a.m. UTC

Rocket: Long March 4B

Launch pad: Launch Complex 7

Location: Taiyuan Satellite Launch Center, People's Republic of China

...

Latest news about this satellite

There are no fresh news available about this satellite. Check back as we update our databases every day.


Newsletter sign-up

Weekly statistics, charts and insights to help you stay on top of the space industry.